Zurück zum Katalog

STARLINK-5212

AktivKommunikationVLEO
NORAD 54075·PAYLOAD·🇺🇸 United States

Gestartet Oct 20, 2022 von Cape Canaveral Space Force Station

Loading…

Nächste Überflüge (nächste 24 Stunden)

TLE

AktuellSource: CelesTrak SupGP

Epoche: Sep 14, 2026, 13:58 UTC

1 54075C 22136AA  26257.58243056 -.00005388  00000+0 -17329-3 0  2577
2 54075  53.1577 196.5503 0001350  94.3125 132.1815 15.31698713    19

Verfolge STARLINK-5212 in Echtzeit mit AllMySat

Download on the App Store